User: anonymous   Login
Location: Unspecified
(0.0000°N, 0.0000°E)
Time: 09:17:32
(UTC+00:00)
Language:

NANOSAT 1B - Orbit

View from above orbital plane
View from above orbital plane
View from above satellite
View from above satellite

Ground track
Ground track

The orbit data is extracted from the following two-line orbital elements,

1 35685U 09041E   18109.91905559 +.00000079 +00000-0 +16328-4 0  9993
2 35685 098.2759 100.0444 0059847 139.1190 221.4535 14.84076410471705
Epoch (UTC): 19 April 2018 22:03:26
Eccentricity: 0.0059847
inclination: 98.2759°
perigee height: 574 km
apogee height: 658 km
right ascension of ascending node: 100.0444°
argument of perigee: 139.1190°
revolutions per day: 14.84076410
mean anomaly at epoch: 221.4535°
orbit number at epoch: 47170

The dashed part of the orbit path shows where the satellite is in the earth's shadow,  

DLR